Location: Doschendorf
(50.0069°N, 11.0602°E)
Time: 02:03:27
(UTC+00:00)

Cosmos 1891 Rocket - Pass Details

Date: 17 November 2019
Orbit: 933 x 1019 km, 82.9° (Epoch: 09 December)

Event Time Altitude Azimuth Distance (km) Brightness Sun altitude
Rises 16:45:06 0° 351° (N) 3,747 7.5 -12.0°
Reaches altitude 10° 16:47:42 10° 354° (N) 2,783 6.8 -12.4°
Maximum altitude 16:54:05 70° 78° (ENE) 1,049 4.5 -13.4°
Drops below altitude 10° 17:00:16 10° 162° (SSE) 2,706 6.8 -14.4°
Sets 17:02:45 0° 165° (SSE) 3,636 7.5 -14.8°
